DateTimeUTC,F1_A11,F1_S11,BsB_S11,BsG_S11,BsR_S11,BbsB_S11,BbsG_S11,BbsR_S11,BaB_A11,BaG_A11,BaR_A11,Tu_S11,T_S11,Uu_S11,U_S11,P_S11,T1_A11
2021-10-23T18:00:00Z,00000200,21000000,,,,,,,0000.13,-000.40,-000.16,17.1,24.0,,00.0,0645.3,30.9
2021-10-23T18:01:00Z,00000200,21000000,,,,,,,0000.03,0000.52,0000.17,17.1,24.0,,00.0,0645.3,30.9
2021-10-23T18:02:00Z,00000200,21000000,,,,,,,0000.01,0000.13,-000.23,17.1,24.0,,00.0,0645.3,30.9
2021-10-23T18:03:00Z,00000200,61000000,,,,,,,0000.28,0000.37,0000.43,17.0,24.0,,00.0,0645.3,30.9
2021-10-23T18:04:00Z,00000200,41000000,0000.13,-000.04,0000.02,-000.20,-000.06,-000.26,0000.25,-000.18,-000.06,17.3,23.8,,00.0,0646.1,30.9
2021-10-23T18:05:00Z,00000200,01000000,0001.06,-000.04,-000.26,-000.07,0000.15,-000.03,0000.31,0000.24,0000.45,17.4,23.8,,00.0,0646.1,30.9
2021-10-23T18:06:00Z,00000200,01000000,-000.35,0000.26,0000.08,0000.45,0000.31,0000.07,0000.02,0000.01,-000.01,17.4,23.8,,00.0,0646.1,31.0
2021-10-23T18:07:00Z,00000200,01000000,0001.02,0000.32,-000.20,0000.14,0000.12,-000.00,-000.08,0000.05,-000.21,17.5,23.8,,00.0,0646.0,31.0
2021-10-23T18:08:00Z,00000200,01000000,0000.17,0000.01,-000.04,0000.08,-000.03,0000.12,0000.15,0000.44,0000.08,17.5,23.8,,00.0,0646.0,31.0
2021-10-23T18:09:00Z,00000200,01000000,-000.25,0000.06,-000.08,0000.39,0000.17,-000.11,-000.18,-000.41,-000.09,17.5,23.9,,00.0,0646.1,31.0
2021-10-23T18:10:00Z,00000200,01000000,0000.46,0000.13,-000.07,0000.41,0000.28,-000.12,0000.18,0000.14,0000.12,17.5,23.9,,00.0,0646.0,31.0
2021-10-23T18:11:00Z,00000200,01000000,0000.90,0000.03,-000.20,0000.26,-000.15,-000.03,-000.60,-000.41,-000.40,17.4,23.8,,00.0,0646.0,31.0
2021-10-23T18:12:00Z,00000200,01000000,-000.01,-000.29,-000.18,0000.46,0000.25,0000.06,0000.14,0000.29,-000.08,17.3,23.8,,00.0,0646.1,30.9
2021-10-23T18:13:00Z,00000200,01000000,0000.43,0000.32,0000.16,0000.55,0000.34,0000.06,0000.05,-000.46,0000.15,17.2,23.7,,00.0,0646.1,30.9
2021-10-23T18:14:00Z,00000200,01000000,-000.08,0000.21,-000.09,0000.54,0000.07,0000.09,-000.13,0000.13,-000.23,17.1,23.7,,00.0,0646.0,30.9
2021-10-23T18:15:00Z,00000200,01000000,0000.10,-000.43,-000.01,0000.10,0000.31,0000.10,-000.12,0000.01,0000.07,17.1,23.6,,00.0,0646.0,30.9
2021-10-23T18:16:00Z,00000200,01000000,0000.11,-000.07,0000.20,0000.61,-000.01,-000.05,-000.06,0000.08,-000.10,17.0,23.6,,00.0,0646.0,30.9
2021-10-23T18:17:00Z,00000200,01000000,0000.83,0000.18,-000.47,0000.45,-000.00,-000.35,0000.19,-000.48,0000.26,17.1,23.6,,00.0,0646.0,30.9
2021-10-23T18:18:00Z,00000200,01000000,0001.09,-000.19,-000.34,0000.88,-000.07,-000.02,-000.32,0000.54,-000.04,17.1,23.6,,00.0,0646.0,30.9
2021-10-23T18:19:00Z,00000200,01000000,0000.37,0000.27,-000.20,-000.13,0000.42,-000.12,0000.21,-000.18,-000.01,17.1,23.6,,00.0,0646.1,30.9
2021-10-23T18:20:00Z,00000200,01000000,0000.21,0000.23,-000.13,0000.42,0000.10,-000.10,-000.13,-000.05,0000.25,17.2,23.7,,00.0,0646.1,30.9
2021-10-23T18:21:00Z,00000200,01000000,0000.04,0000.26,-000.37,0000.00,-000.19,0000.07,0000.49,0000.17,-000.07,17.2,23.7,,00.0,0646.1,30.9
2021-10-23T18:22:00Z,00000200,01000000,0000.40,0000.02,-000.46,0000.62,-000.06,-000.03,-000.19,0000.33,0000.19,17.3,23.7,,00.0,0646.1,31.0
2021-10-23T18:23:00Z,00000200,01000000,0000.37,0000.03,-000.32,0000.22,0000.17,-000.33,0000.35,0000.16,0000.09,17.4,23.7,,00.0,0646.1,31.0
2021-10-23T18:24:00Z,00000200,01000000,0000.13,-000.18,-000.08,0000.54,0000.40,0000.01,0000.23,-000.04,0000.08,17.4,23.7,,00.0,0646.1,31.0
2021-10-23T18:25:00Z,00000200,01000000,0000.34,0000.03,-000.19,0000.01,0000.02,0000.28,-000.35,-000.16,-000.50,17.5,23.8,,00.0,0646.2,31.0
2021-10-23T18:26:00Z,00000200,01000000,0000.79,0000.19,-000.07,0000.83,-000.08,-000.09,-000.00,0000.06,0000.31,17.4,23.8,,00.0,0646.1,31.0
2021-10-23T18:27:00Z,00000200,01000000,0000.01,-000.02,-000.22,-000.13,-000.15,-000.18,0000.03,-000.23,-000.23,17.4,23.8,,00.0,0646.2,31.0
2021-10-23T18:28:00Z,00000200,01000000,0000.01,-000.16,-000.18,0000.19,0000.15,-000.24,-000.20,0000.12,0000.24,17.3,23.7,,00.0,0646.1,30.9
2021-10-23T18:29:00Z,00000200,01000000,0000.84,0000.09,-000.28,-000.27,0000.20,-000.15,0000.46,0000.35,0000.45,17.2,23.7,,00.0,0646.2,30.9
2021-10-23T18:30:00Z,00000200,01000000,-000.09,0000.08,-000.01,0000.16,0000.05,0000.23,-000.39,-000.51,-000.55,17.1,23.6,,00.0,0646.1,30.9
2021-10-23T18:31:00Z,00000200,01000000,0000.09,0000.13,-000.19,0000.26,0000.00,0000.34,-000.06,0000.34,0000.20,17.0,23.6,,00.0,0646.1,30.9
2021-10-23T18:32:00Z,00000200,01000000,-000.19,0000.09,-000.12,0000.29,0000.10,0000.22,0000.40,-000.05,-000.40,17.0,23.5,,00.0,0646.1,30.9
2021-10-23T18:33:00Z,00000200,01000000,-000.46,-000.18,0000.41,0000.22,-000.01,0000.40,-000.41,-000.36,-000.21,16.9,23.5,,00.0,0646.0,30.9
2021-10-23T18:34:00Z,00000200,01000000,0000.20,0000.34,-000.35,0000.06,-000.06,-000.00,0000.43,-000.14,-000.07,16.8,23.4,,00.0,0646.1,30.9
2021-10-23T18:35:00Z,00000200,01000000,-000.84,-000.18,-000.14,0000.02,0000.01,0000.10,-000.61,0000.03,0000.25,16.7,23.4,,00.0,0646.1,30.9
2021-10-23T18:36:00Z,00000200,01000000,-000.59,0000.24,0000.13,0000.25,-000.07,0000.22,-000.12,0000.30,-000.37,16.6,23.3,,00.0,0646.1,30.9
2021-10-23T18:37:00Z,00000200,01000000,0000.72,-000.27,-000.37,0000.51,0000.19,-000.07,0000.18,-000.71,0000.27,16.6,23.3,,00.0,0646.0,30.8
2021-10-23T18:38:00Z,00000200,01000000,0000.22,-000.06,-000.08,0000.41,0000.19,-000.12,-000.12,0000.03,-000.68,16.5,23.2,,00.0,0646.0,30.8
2021-10-23T18:39:00Z,00000200,01000000,0000.55,0000.07,-000.12,0000.77,0000.23,-000.16,-000.18,-000.16,0000.22,16.4,23.2,,00.0,0646.1,30.8
2021-10-23T18:40:00Z,00000200,01000000,0000.45,-000.02,-000.56,0000.05,-000.03,-000.33,-000.01,0000.11,0000.04,16.4,23.1,,00.0,0646.1,30.8
2021-10-23T18:41:00Z,00000200,01000000,-000.25,-000.23,-000.35,0000.67,0000.30,-000.05,-000.23,-000.17,-000.07,16.3,23.1,,00.0,0646.1,30.8
2021-10-23T18:42:00Z,00000200,01000000,0000.41,0000.21,0000.05,0000.03,0000.14,-000.07,0000.42,0000.12,0000.25,16.3,23.1,,00.0,0646.1,30.8
2021-10-23T18:43:00Z,00000200,01000000,0000.34,-000.19,-000.38,0000.16,0000.31,-000.09,0000.29,0000.59,0000.32,16.4,23.1,,00.0,0646.2,30.9
2021-10-23T18:44:00Z,00000200,01000000,0000.25,-000.08,-000.21,0000.55,-000.20,-000.42,-000.54,-000.01,-000.10,16.4,23.1,,00.0,0646.1,30.9
2021-10-23T18:45:00Z,00000200,01000000,-000.63,0000.07,-000.22,-000.24,0000.06,0000.03,0000.54,0000.06,0000.18,16.5,23.1,,00.0,0646.2,30.9
2021-10-23T18:46:00Z,00000200,01000000,-000.23,0000.04,0000.01,0000.08,-000.03,-000.10,-000.35,-000.14,-000.17,16.6,23.2,,00.0,0646.2,30.9
2021-10-23T18:47:00Z,00000200,01000000,0000.49,-000.24,-000.27,0000.54,-000.03,-000.15,-000.05,-000.08,-000.20,16.7,23.2,,00.0,0646.2,30.9
2021-10-23T18:48:00Z,00000200,01000000,0000.26,-000.17,-000.04,0000.40,0000.13,-000.05,0000.18,0000.00,0000.45,16.7,23.2,,00.0,0646.2,30.9
2021-10-23T18:49:00Z,00000200,01000000,0000.58,-000.18,0000.07,0000.14,-000.08,0000.12,-000.08,0000.17,-000.04,16.8,23.3,,00.0,0646.3,30.9
2021-10-23T18:50:00Z,00000200,01000000,0000.63,0000.16,-000.34,0000.23,0000.08,-000.07,-000.19,-000.64,-000.14,16.8,23.3,,00.0,0646.2,30.9
2021-10-23T18:51:00Z,00000200,01000000,0000.81,0000.00,0000.02,-000.23,-000.06,0000.02,0000.05,0000.06,0000.08,16.9,23.3,,00.0,0646.2,30.9
2021-10-23T18:52:00Z,00000200,01000000,0000.69,0000.24,-000.28,0000.10,0000.11,-000.23,0000.13,0000.70,0000.22,17.0,23.3,,00.0,0646.3,30.9
2021-10-23T18:53:00Z,00000200,01000000,0001.09,-000.31,-000.38,0000.49,0000.26,-000.19,-000.03,-000.35,-000.08,17.0,23.4,,00.0,0646.3,30.9
2021-10-23T18:54:00Z,00000200,01000000,0000.42,0000.06,-000.17,0000.15,-000.17,0000.25,0000.32,0000.39,0000.06,17.1,23.4,,00.0,0646.3,31.0
2021-10-23T18:55:00Z,00000200,01000000,0000.24,0000.15,0000.02,0000.21,0000.05,-000.07,-000.04,-000.15,0000.14,17.2,23.4,,00.0,0646.3,31.0
2021-10-23T18:56:00Z,00000200,01000000,0000.13,0000.04,0000.11,0000.21,0000.03,0000.13,0000.24,0000.22,0000.22,17.3,23.4,,00.0,0646.4,31.0
2021-10-23T18:57:00Z,00000200,41000000,,,,,,,0000.28,0000.34,0000.16,17.4,23.5,,00.0,0646.4,31.0
2021-10-23T18:58:00Z,00000200,61000000,,,,,,,-000.38,0000.13,-000.18,17.1,23.6,,00.0,0645.4,31.0
2021-10-23T18:59:00Z,00000200,21000000,,,,,,,0000.30,0000.11,0000.17,17.1,23.7,,00.0,0645.3,31.0
